GW3838 Weather Reports


Display with metric or nautical units.
time (UTC)temp
F
wind
direction
speed
MPH
gust
MPH
rain 1hr
in
rain 24hr
in
rain mn
in
humidity
%
barometer
mb
20260507063014 74 209 3.0 6.0 0.00 0.00 0.00 82 1018.7
20260507062510 74 190 3.0 7.0 0.00 0.00 0.00 82 1018.5
20260507062008 74 207 5.0 7.0 0.00 0.00 0.00 82 1018.6
20260507061506 74 180 5.0 8.0 0.00 0.00 0.00 82 1018.6
20260507061004 74 186 6.0 8.0 0.00 0.00 0.00 82 1018.5
20260507060501 74 196 2.0 5.0 0.00 0.00 0.00 82 1018.7
20260507055957 74 185 4.0 6.0 0.00 0.00 0.00 82 1018.8
20260507055452 73 193 6.0 7.0 0.00 0.00 0.00 82 1018.9
20260507054949 73 176 3.0 6.0 0.00 0.00 0.00 82 1019.1
20260507054445 74 183 2.0 5.0 0.00 0.00 0.00 81 1019.4
20260507053943 74 182 1.0 1.0 0.00 0.00 0.00 80 1019.5
20260507053440 74 149 1.0 1.0 0.00 0.00 0.00 80 1019.2
20260507052938 74 123 1.0 2.0 0.00 0.00 0.00 79 1019.0
20260507052436 74 174 0.0 1.0 0.00 0.00 0.00 79 1019.8
20260507051933 74 174 0.0 1.0 0.00 0.00 0.00 79 1019.8
20260507051430 74 169 0.0 1.0 0.00 0.00 0.00 79 1019.9
20260507050927 75 169 1.0 2.0 0.00 0.00 0.00 78 1019.8
20260507050423 75 173 2.0 2.0 0.00 0.00 0.00 77 1019.9
20260507045921 75 176 1.0 2.0 0.00 0.00 0.00 77 1020.2
20260507045417 75 173 1.0 1.0 0.00 0.00 0.00 77 1019.9
20260507044914 75 171 0.0 0.0 0.00 0.00 0.00 76 1020.0
20260507044410 75 173 0.0 1.0 0.00 0.00 0.00 75 1019.8
20260507043906 76 131 0.0 1.0 0.00 0.00 0.00 75 1019.8
20260507043357 76 164 2.0 2.0 0.00 0.00 0.00 74 1019.7
20260507042134 77 181 3.0 5.0 0.00 0.00 0.00 71 1019.5
20260507041631 77 181 3.0 5.0 0.00 0.00 0.00 71 1019.5
20260507041127 77 182 3.0 5.0 0.00 0.00 0.00 70 1019.7
20260507040625 77 173 5.0 5.0 0.00 0.00 0.00 69 1019.7
20260507040121 77 172 4.0 6.0 0.00 0.00 0.00 69 1019.7
20260507035616 77 168 3.0 5.0 0.00 0.00 0.00 69 1019.7
20260507035113 77 174 3.0 3.0 0.00 0.00 0.00 68 1019.8
20260507034610 77 171 0.0 1.0 0.00 0.00 0.00 66 1019.8
20260507034107 78 183 2.0 5.0 0.00 0.00 0.00 66 1019.6
20260507033606 78 177 4.0 5.0 0.00 0.00 0.00 66 1019.1
20260507033103 78 175 3.0 3.0 0.00 0.00 0.00 65 1019.4
20260507032600 77 187 3.0 6.0 0.00 0.00 0.00 66 1019.3
20260507032056 77 176 3.0 3.0 0.00 0.00 0.00 66 1019.0
20260507031552 77 143 2.0 3.0 0.00 0.00 0.00 66 1019.0
20260507031049 77 162 3.0 3.0 0.00 0.00 0.00 67 1019.3
20260507030546 77 147 3.0 5.0 0.00 0.00 0.00 66 1019.3
20260507030044 78 147 2.0 5.0 0.00 0.00 0.00 65 1019.5
20260507025541 78 167 1.0 2.0 0.00 0.00 0.00 64 1019.8
20260507025038 79 169 1.0 2.0 0.00 0.00 0.00 62 1019.5
20260507024536 80 179 3.0 3.0 0.00 0.00 0.00 60 1019.4
20260507024032 80 156 3.0 5.0 0.00 0.00 0.00 60 1019.3
20260507023528 80 178 4.0 6.0 0.00 0.00 0.00 60 1019.1
20260507023026 80 202 4.0 6.0 0.00 0.00 0.00 60 1019.2
20260507022522 80 218 3.0 6.0 0.00 0.00 0.00 60 1018.8
20260507022018 80 180 3.0 5.0 0.00 0.00 0.00 60 1018.9
20260507021514 80 212 2.0 2.0 0.00 0.00 0.00 60 1018.8
20260507021011 80 193 3.0 3.0 0.00 0.00 0.00 60 1018.7
20260507020508 80 193 2.0 3.0 0.00 0.00 0.00 59 1018.6
20260507020005 80 185 3.0 3.0 0.00 0.00 0.00 59 1018.7
20260507015503 80 180 3.0 5.0 0.00 0.00 0.00 59 1018.5
20260507015000 80 196 4.0 6.0 0.00 0.00 0.00 59 1018.5
20260507014457 80 185 3.0 5.0 0.00 0.00 0.00 58 1018.7
20260507013952 81 184 3.0 3.0 0.00 0.00 0.00 58 1018.8
20260507013449 81 204 2.0 3.0 0.00 0.00 0.00 58 1019.0
20260507012947 81 235 3.0 6.0 0.00 0.00 0.00 57 1018.4
20260507012443 81 200 5.0 7.0 0.00 0.00 0.00 57 1018.5
20260507011940 81 201 4.0 6.0 0.00 0.00 0.00 57 1018.7
20260507011437 81 209 4.0 6.0 0.00 0.00 0.00 57 1018.4
20260507010932 81 173 3.0 7.0 0.00 0.00 0.00 57 1018.7
20260507010427 81 171 4.0 7.0 0.00 0.00 0.00 56 1018.5
20260507005924 81 196 3.0 6.0 0.00 0.00 0.00 56 1018.8
20260507005421 81 188 3.0 7.0 0.00 0.00 0.00 56 1018.8
20260507004918 81 191 3.0 5.0 0.00 0.00 0.00 56 1018.7
20260507004414 81 189 4.0 6.0 0.00 0.00 0.00 57 1018.8
20260507003912 81 181 4.0 6.0 0.00 0.00 0.00 57 1018.8
20260507003407 81 191 3.0 3.0 0.00 0.00 0.00 57 1019.0
20260507002903 81 180 3.0 3.0 0.00 0.00 0.00 57 1018.9
20260507002359 82 182 2.0 3.0 0.00 0.00 0.00 56 1019.0
20260507001856 82 177 3.0 5.0 0.00 0.00 0.00 54 1019.0
20260507001353 83 173 1.0 3.0 0.00 0.00 0.00 53 1019.2
20260507000850 83 183 2.0 3.0 0.00 0.00 0.00 53 1019.3
20260507000345 83 203 3.0 5.0 0.00 0.00 0.00 53 1019.5
20260506235842 83 203 3.0 5.0 0.00 0.00 0.00 52 1019.4
20260506235339 84 173 3.0 3.0 0.00 0.00 0.00 52 1019.4
20260506234834 84 187 2.0 6.0 0.00 0.00 0.00 52 1018.9
20260506234332 84 168 5.0 7.0 0.00 0.00 0.00 51 1018.8
20260506233830 84 181 2.0 6.0 0.00 0.00 0.00 51 1019.1
20260506233325 85 178 2.0 5.0 0.00 0.00 0.00 51 1019.4
20260506232823 85 203 5.0 6.0 0.00 0.00 0.00 50 1019.3
20260506232318 85 197 2.0 3.0 0.00 0.00 0.00 50 1019.4
20260506231815 86 209 2.0 3.0 0.00 0.00 0.00 49 1019.0
20260506231313 86 211 6.0 9.0 0.00 0.00 0.00 48 1019.1
20260506230810 86 169 3.0 5.0 0.00 0.00 0.00 48 1019.2
20260506230307 86 244 4.0 5.0 0.00 0.00 0.00 47 1019.0
20260506225803 87 226 3.0 7.0 0.00 0.00 0.00 46 1018.8
20260506225300 87 230 2.0 6.0 0.00 0.00 0.00 46 1019.0
20260506224756 87 194 1.0 2.0 0.00 0.00 0.00 46 1018.9
20260506224254 87 214 4.0 6.0 0.00 0.00 0.00 46 1018.7
20260506223749 87 273 3.0 5.0 0.00 0.00 0.00 45 1018.9
20260506223240 87 241 7.0 8.0 0.00 0.00 0.00 45 1018.9
20260506222737 87 224 7.0 9.0 0.00 0.00 0.00 44 1019.0
20260506222232 87 210 3.0 5.0 0.00 0.00 0.00 46 1019.0
20260506221731 87 202 5.0 8.0 0.00 0.00 0.00 45 1019.3
20260506221229 87 197 7.0 11.0 0.00 0.00 0.00 45 1019.2
20260506220725 88 205 5.0 10.0 0.00 0.00 0.00 44 1019.2
20260506220220 88 183 5.0 6.0 0.00 0.00 0.00 44 1019.6
20260506215717 87 219 6.0 15.0 0.00 0.00 0.00 44 1019.5
20260506215213 89 216 5.0 9.0 0.00 0.00 0.00 43 1019.4
20260506214709 88 237 5.0 10.0 0.00 0.00 0.00 43 1019.4
20260506214206 88 221 6.0 7.0 0.00 0.00 0.00 43 1019.3
20260506213705 87 292 6.0 9.0 0.00 0.00 0.00 43 1019.4
20260506213202 87 248 3.0 9.0 0.00 0.00 0.00 43 1019.2
20260506212659 88 247 6.0 9.0 0.00 0.00 0.00 43 1019.3
20260506212200 88 278 7.0 10.0 0.00 0.00 0.00 42 1019.3
20260506211650 88 305 5.0 11.0 0.00 0.00 0.00 42 1019.1
20260506211147 89 227 7.0 11.0 0.00 0.00 0.00 41 1019.0
20260506210644 89 209 5.0 9.0 0.00 0.00 0.00 42 1019.1
20260506210140 89 232 5.0 8.0 0.00 0.00 0.00 41 1019.2
20260506205637 89 293 4.0 8.0 0.00 0.00 0.00 42 1019.1
20260506205132 89 244 7.0 16.0 0.00 0.00 0.00 43 1019.1
20260506204631 90 188 7.0 10.0 0.00 0.00 0.00 42 1019.3
20260506204127 90 253 6.0 8.0 0.00 0.00 0.00 42 1019.3
20260506203625 89 206 4.0 7.0 0.00 0.00 0.00 42 1019.6
20260506203121 89 203 4.0 9.0 0.00 0.00 0.00 43 1019.7
20260506202620 90 167 2.0 6.0 0.00 0.00 0.00 43 1019.6
20260506202116 89 170 6.0 9.0 0.00 0.00 0.00 43 1019.6
20260506201613 89 278 5.0 8.0 0.00 0.00 0.00 43 1019.8
20260506201110 89 174 1.0 8.0 0.00 0.00 0.00 43 1019.9
20260506200606 89 263 4.0 5.0 0.00 0.00 0.00 43 1020.0
20260506195559 89 246 6.0 8.0 0.00 0.00 0.00 43 1019.9
20260506195056 89 307 4.0 7.0 0.00 0.00 0.00 42 1020.0
20260506194554 89 190 7.0 13.0 0.00 0.00 0.00 42 1020.0
20260506194049 89 186 3.0 7.0 0.00 0.00 0.00 43 1020.1
20260506193548 88 205 2.0 3.0 0.00 0.00 0.00 44 1020.1
20260506193045 88 226 7.0 9.0 0.00 0.00 0.00 43 1020.3
20260506192541 87 192 6.0 9.0 0.00 0.00 0.00 44 1020.2
20260506192037 88 211 6.0 10.0 0.00 0.00 0.00 44 1020.3
20260506191534 88 162 8.0 13.0 0.00 0.00 0.00 44 1020.3
20260506191030 88 351 4.0 7.0 0.00 0.00 0.00 44 1020.2
20260506190527 88 216 4.0 6.0 0.00 0.00 0.00 44 1020.6
20260506190024 88 206 4.0 9.0 0.00 0.00 0.00 44 1020.6
20260506185522 87 307 4.0 7.0 0.00 0.00 0.00 44 1020.6
20260506185018 88 179 3.0 11.0 0.00 0.00 0.00 44 1020.8
20260506184515 88 243 3.0 7.0 0.00 0.00 0.00 44 1020.4
20260506184012 87 177 9.0 14.0 0.00 0.00 0.00 45 1020.9
20260506183508 87 212 3.0 8.0 0.00 0.00 0.00 44 1020.7
20260506183006 87 223 2.0 6.0 0.00 0.00 0.00 45 1020.8
20260506182502 87 222 4.0 9.0 0.00 0.00 0.00 45 1021.1
20260506181959 87 217 3.0 8.0 0.00 0.00 0.00 44 1021.1
20260506181457 87 230 7.0 9.0 0.00 0.00 0.00 43 1021.4
20260506180954 87 227 6.0 10.0 0.00 0.00 0.00 44 1021.1
20260506180450 87 244 5.0 13.0 0.00 0.00 0.00 46 1021.4
20260506175946 86 185 9.0 11.0 0.00 0.00 0.00 45 1021.5
20260506175443 86 222 8.0 9.0 0.00 0.00 0.00 44 1021.4
20260506174939 87 242 5.0 7.0 0.00 0.00 0.00 45 1021.7
20260506174438 86 243 6.0 7.0 0.00 0.00 0.00 45 1021.8
20260506173934 85 353 3.0 7.0 0.00 0.00 0.00 48 1021.6
20260506173432 86 242 4.0 7.0 0.00 0.00 0.00 46 1021.9
20260506172929 86 283 4.0 7.0 0.00 0.00 0.00 47 1021.9
20260506172426 85 185 5.0 7.0 0.00 0.00 0.00 48 1022.0
20260506171922 85 173 7.0 13.0 0.00 0.00 0.00 47 1022.0
20260506171420 85 276 5.0 11.0 0.00 0.00 0.00 47 1022.0
20260506170917 84 280 3.0 9.0 0.00 0.00 0.00 48 1022.3
20260506170413 84 290 4.0 8.0 0.00 0.00 0.00 48 1022.1
20260506165912 84 139 4.0 9.0 0.00 0.00 0.00 48 1022.4
20260506165410 83 227 2.0 8.0 0.00 0.00 0.00 51 1022.3
20260506164906 83 294 5.0 7.0 0.00 0.00 0.00 49 1022.4
20260506164403 83 225 5.0 8.0 0.00 0.00 0.00 50 1022.5
20260506163901 83 199 3.0 8.0 0.00 0.00 0.00 51 1022.6
20260506163355 82 244 6.0 11.0 0.00 0.00 0.00 51 1022.6
20260506162850 83 201 6.0 10.0 0.00 0.00 0.00 51 1022.7
20260506162349 82 230 7.0 9.0 0.00 0.00 0.00 51 1023.1
20260506161846 80 271 2.0 6.0 0.00 0.00 0.00 54 1022.9
20260506161343 81 204 5.0 11.0 0.00 0.00 0.00 53 1023.0
20260506160841 81 159 3.0 8.0 0.00 0.00 0.00 55 1023.0
20260506160337 81 313 5.0 11.0 0.00 0.00 0.00 55 1022.9
20260506155836 80 222 7.0 10.0 0.00 0.00 0.00 57 1023.2
20260506155332 79 255 6.0 8.0 0.00 0.00 0.00 58 1022.7
20260506153444 78 164 3.0 7.0 0.00 0.00 0.00 58 1022.9
20260506152942 78 195 4.0 10.0 0.00 0.00 0.00 59 1023.1
20260506152438 79 204 9.0 10.0 0.00 0.00 0.00 58 1022.9
20260506151937 79 211 5.0 7.0 0.00 0.00 0.00 58 1023.0
20260506151434 78 232 4.0 13.0 0.00 0.00 0.00 59 1022.6
20260506150932 79 195 6.0 9.0 0.00 0.00 0.00 58 1022.9
20260506150427 79 197 4.0 8.0 0.00 0.00 0.00 58 1022.7
20260506145925 78 214 6.0 9.0 0.00 0.00 0.00 60 1022.8
20260506145421 78 204 3.0 7.0 0.00 0.00 0.00 61 1022.8
20260506144918 76 199 8.0 9.0 0.00 0.00 0.00 63 1022.7
20260506144414 76 197 3.0 9.0 0.00 0.00 0.00 64 1022.6
20260506143914 76 217 6.0 7.0 0.00 0.00 0.00 64 1023.0
20260506143410 77 181 4.0 7.0 0.00 0.00 0.00 63 1023.0
20260506142908 76 215 3.0 5.0 0.00 0.00 0.00 63 1023.1
20260506142406 76 197 5.0 7.0 0.00 0.00 0.00 64 1023.1
20260506141904 77 191 3.0 6.0 0.00 0.00 0.00 64 1023.0
20260506141401 76 198 3.0 7.0 0.00 0.00 0.00 65 1022.8
20260506140859 75 231 3.0 6.0 0.00 0.00 0.00 66 1022.8
20260506140356 75 223 2.0 6.0 0.00 0.00 0.00 66 1022.6
20260506135853 75 265 6.0 8.0 0.00 0.00 0.00 66 1022.5
20260506135350 75 218 3.0 8.0 0.00 0.00 0.00 66 1022.7
20260506134846 75 224 4.0 6.0 0.00 0.00 0.00 67 1022.8
20260506134342 75 222 3.0 8.0 0.00 0.00 0.00 66 1022.5
20260506133840 75 224 3.0 5.0 0.00 0.00 0.00 67 1022.5
20260506133336 74 202 2.0 5.0 0.00 0.00 0.00 69 1022.3
20260506132833 73 172 4.0 7.0 0.00 0.00 0.00 69 1022.7
20260506132330 73 225 9.0 11.0 0.00 0.00 0.00 69 1022.6
20260506131828 72 226 3.0 6.0 0.00 0.00 0.00 72 1022.4
20260506131324 71 232 4.0 8.0 0.00 0.00 0.00 72 1022.4
20260506130822 71 171 1.0 7.0 0.00 0.00 0.00 74 1022.4
20260506130318 70 216 5.0 7.0 0.00 0.00 0.00 75 1022.4
20260506125816 70 212 2.0 3.0 0.00 0.00 0.00 76 1022.2
20260506125314 69 165 1.0 3.0 0.00 0.00 0.00 77 1022.1
20260506124812 68 202 4.0 7.0 0.00 0.00 0.00 78 1022.4
20260506124309 68 217 2.0 7.0 0.00 0.00 0.00 79 1022.1
20260506123806 67 184 3.0 5.0 0.00 0.00 0.00 80 1022.1
20260506123305 67 220 3.0 5.0 0.00 0.00 0.00 80 1022.1
20260506122801 67 157 3.0 5.0 0.00 0.00 0.00 81 1021.9
20260506122258 66 187 4.0 7.0 0.00 0.00 0.00 81 1021.8
20260506121756 66 222 2.0 2.0 0.00 0.00 0.00 82 1022.2
20260506121253 65 176 2.0 5.0 0.00 0.00 0.00 83 1022.0
20260506120750 65 187 2.0 5.0 0.00 0.00 0.00 83 1022.1
20260506120248 65 228 3.0 3.0 0.00 0.00 0.00 83 1022.0
20260506115745 64 170 1.0 5.0 0.00 0.00 0.00 85 1021.9
20260506115244 64 175 1.0 2.0 0.00 0.00 0.00 85 1021.7
20260506114741 63 224 3.0 6.0 0.00 0.00 0.00 86 1021.9
20260506114239 62 185 2.0 6.0 0.00 0.00 0.00 88 1021.5
20260506113737 62 221 3.0 3.0 0.00 0.00 0.00 89 1021.4
20260506113234 62 194 2.0 5.0 0.00 0.00 0.00 90 1021.5
20260506112730 61 184 3.0 3.0 0.00 0.00 0.00 91 1021.4
20260506112228 60 178 2.0 2.0 0.00 0.00 0.00 92 1021.4
20260506111725 60 173 2.0 5.0 0.00 0.00 0.00 93 1021.4
20260506111223 60 167 1.0 2.0 0.00 0.00 0.00 93 1021.5
20260506110720 59 162 1.0 1.0 0.00 0.00 0.00 93 1021.4
20260506110218 59 161 0.0 0.0 0.00 0.00 0.00 93 1021.4
20260506105714 59 161 0.0 0.0 0.00 0.00 0.00 93 1021.4
20260506105211 59 164 1.0 1.0 0.00 0.00 0.00 93 1021.4
20260506104709 59 163 0.0 1.0 0.00 0.00 0.00 93 1021.4
20260506104206 59 165 1.0 1.0 0.00 0.00 0.00 93 1021.1
20260506103703 58 155 0.0 1.0 0.00 0.00 0.00 93 1021.0
20260506103200 58 155 0.0 0.0 0.00 0.00 0.00 92 1021.0
20260506102658 59 155 0.0 1.0 0.00 0.00 0.00 92 1021.0
20260506102156 59 177 0.0 1.0 0.00 0.00 0.00 92 1021.0
20260506101652 59 177 0.0 1.0 0.00 0.00 0.00 92 1021.3
20260506101149 59 177 1.0 1.0 0.00 0.00 0.00 92 1021.2
20260506100648 59 177 0.0 1.0 0.00 0.00 0.00 92 1021.1
20260506100145 59 178 1.0 1.0 0.00 0.00 0.00 92 1021.1
20260506095644 59 175 1.0 1.0 0.00 0.00 0.00 92 1021.3
20260506095140 59 175 0.0 1.0 0.00 0.00 0.00 91 1021.3
20260506094637 60 175 1.0 1.0 0.00 0.00 0.00 91 1021.3
20260506094135 60 176 1.0 2.0 0.00 0.00 0.00 91 1021.4
20260506093633 60 175 1.0 1.0 0.00 0.00 0.00 91 1021.4
20260506093130 60 173 0.0 1.0 0.00 0.00 0.00 91 1021.3
20260506092628 60 173 0.0 0.0 0.00 0.00 0.00 91 1021.3
20260506092125 60 173 0.0 1.0 0.00 0.00 0.00 90 1021.2
20260506091623 60 174 1.0 1.0 0.00 0.00 0.00 90 1021.2
20260506091120 60 173 0.0 1.0 0.00 0.00 0.00 90 1021.2
20260506090618 60 175 1.0 2.0 0.00 0.00 0.00 90 1021.1
20260506090114 60 172 1.0 2.0 0.00 0.00 0.00 89 1021.4
20260506085611 60 156 1.0 1.0 0.00 0.00 0.00 89 1021.5
20260506085107 61 167 2.0 2.0 0.00 0.00 0.00 88 1021.4
20260506084604 61 168 2.0 3.0 0.00 0.00 0.00 88 1021.4
20260506084101 61 165 1.0 1.0 0.00 0.00 0.00 88 1021.5
20260506083558 61 176 1.0 2.0 0.00 0.00 0.00 88 1021.4
20260506083055 61 178 2.0 3.0 0.00 0.00 0.00 88 1021.2
20260506082552 61 161 2.0 2.0 0.00 0.00 0.00 88 1021.2
20260506082047 61 183 2.0 3.0 0.00 0.00 0.00 87 1021.3
20260506081546 61 178 3.0 5.0 0.00 0.00 0.00 87 1021.1
20260506081043 61 173 3.0 3.0 0.00 0.00 0.00 87 1021.2
20260506080541 62 170 2.0 5.0 0.00 0.00 0.00 87 1021.3
20260506073524 62 178 3.0 5.0 0.00 0.00 0.00 86 1021.1
20260506073021 62 201 4.0 5.0 0.00 0.00 0.00 86 1021.0
20260506072518 62 176 3.0 5.0 0.00 0.00 0.00 86 1021.0
20260506072016 62 178 4.0 6.0 0.00 0.00 0.00 86 1021.0
20260506071514 62 173 2.0 5.0 0.00 0.00 0.00 86 1021.2
20260506071010 62 170 3.0 3.0 0.00 0.00 0.00 85 1021.0
20260506070508 62 188 4.0 5.0 0.00 0.00 0.00 85 1020.9